Regional Weather Roundup
Issued by NWS Lake Charles, LA

Current Version | Previous Version | Text Only | Print | Product List | Glossary On
Versions: 1 2 3 4 5 6 7 8 9 10 11 12 13 14 15 16 17 18 19 20 21 22 23 24 25 26 27 28 29 30 31 32 33 34 35 36 37 38 39 40 41 42 43 44 45 46 47 48 49 50
000
ASUS44 KLCH 292210
RWRLCH
RWRLCH
REGIONAL WEATHER ROUNDUP
NATIONAL WEATHER SERVICE LAKE CHARLES LA
500 PM CDT FRI AUG 29 2014

Note: "fair" indicates few or no clouds below 12,000 feet with no
significant weather and/or obstructions to visibility.


ACROSS SOUTHEAST TEXAS

CITY           SKY/WX    TMP DP  RH WIND       PRES   REMARKS
BEAUMONT       LGT RAIN  80  72  76 SE13      29.88R
BEAUMONT CITY  MOCLDY    81  74  78 E9        29.87S
ORANGE         CLOUDY    80  72  76 E9        29.89F
JASPER         PTSUNNY   84  73  68 SE7       29.90F
$$

ACROSS CENTRAL LOUISIANA

CITY           SKY/WX    TMP DP  RH WIND       PRES   REMARKS
LEESVILLE      CLOUDY    82  75  79 SE8       29.89F
FULLERTON        N/A     85  74  69 CALM      29.87F
ALEXANDRIA INT LGT RAIN  83  75  77 S5        29.88F
ESLER FIELD    CLOUDY    87  75  67 SE6       29.91F
DERIDDER         N/A     82  73  74 CALM      29.91F HAZE
OAKDALE        CLOUDY    84  76  77 CALM      29.89F
OPELOUSAS      MOCLDY    82  74  77 E9        29.91S
$$

ACROSS SOUTHWEST AND SOUTH CENTRAL LOUISIANA

CITY           SKY/WX    TMP DP  RH WIND       PRES   REMARKS
SULPHUR        CLOUDY    79  74  83 E6        29.90S
LAKE CHARLES   CLOUDY    79  75  87 SE9       29.89F
CHENNAULT INT  CLOUDY    81  73  78 SE8       29.90
CAMERON PHI    CLEAR     79  73  83 SE10      29.89F
DEQUINCY         N/A     78  71  79 SE5       29.89F
JENNINGS         N/A     81  74  80 SE6       29.90R
LAFAYETTE      CLOUDY    82  74  76 E7        29.92S
NEW IBERIA     CLOUDY    82  75  79 E12       29.93R
ABBEVILLE      MOCLDY    82  75  81 SE8       29.92R
PATTERSON        N/A     77  73  88 E6        29.97R
SALT POINT       N/A     81  75  82 VRB6      29.93R
$$

SELECTED SITES ACROSS THE REGION

CITY           SKY/WX    TMP DP  RH WIND       PRES   REMARKS
HOUSTON BUSH   PTSUNNY   86  72  62 SE13      29.83F
HOUSTON HOBBY  CLOUDY    83  74  74 SE8       29.82F
GALVESTON      LGT RAIN  78  76  93 SE8       29.84F
COLLEGE STAT   CLOUDY    85  70  60 SE5       29.85R THUNDER
CONROE         CLOUDY    83  72  69 SE5       29.85F
HUNTSVILLE     CLOUDY    86  69  56 E6        29.86F
LUFKIN         PTSUNNY   90  72  55 SE9       29.87F
SHREVEPORT     PTSUNNY   94  67  41 S12G18    29.85F
MONROE         SUNNY     91  68  46 S10G18    29.90S
NATCHEZ MS     PTSUNNY   88  73  62 SE10      29.94F
BATON ROUGE    CLOUDY    80  74  81 SE8       29.95S
N.O. INTL ARPT LGT RAIN  80  74  81 E7        29.96F
SLIDELL        LGT RAIN  76  72  87 NE5       29.97S
$$

MARINE REPORTS

STATION/POSITION TIME  TEMP    WIND        PRES    VSBY  WAVE
                       AIR SEA DIR/SP/G                  HT/PER
                 (UTC) (F)     (DEG/KT/KT) (MB)    (MI)  (FT/S)
BUOY 30 S HIGH I 2200   80 86  120/  8/ 10 1011.0R         5/ 5
SEA RIM ST PARK  2200   75     120/ 16/ 18 1012.7R
PORT ARTHUR      2200      86  110/ 10/ 14 1012.0R
SABINE PASS N    2200   80 84  130/ 19/ 20 1011.8F
TEXAS POINT      2200   79 84  120/ 17/ 19 1012.1F
CALCASIEU PASS   2200   80 83  130/ 12/ 14 1013.1S
LK CHARLES BEACH 2200   80 87              1012.9S
MARSH ISLAND     NOT AVBL
FRESH WATER LOCK 2200   80 82  110/ 11/ 14 1012.7R
AMERADA PASS     2200   78 85  100/  9/ 14 1013.3F
$$


USA.gov is the U.S. government's official web portal to all federal, state and local government web resources and services.